Location: Erdweis
(48.5167°N, 15.3500°E)
Time: 14:02:26
(UTC+00:00)

USA 234 - Pass Details

Date: 20 January 2021
Orbit: 1100 x 1107 km, 123.0° (Epoch: 01 March)

Event Time Altitude Azimuth Distance (km) Brightness Sun altitude
Exits shadow 16:52:56 16° 71° (ENE) 2,570 4.5 -12.1°
Maximum altitude 16:57:54 44° 7° (N) 1,491 3.8 -12.9°
Drops below altitude 10° 17:04:01 10° 298° (WNW) 2,968 6.2 -13.9°
Sets 17:06:37 0° 292° (WNW) 3,928 7.1 -14.3°
